"Pseudo-MPEC" for P12hWFV

Created 2025 Dec 5 23:35:05 UT using Find_Orb

Click here for an explanation of pseudo-MPECs

 
 Astrometry: 
     P12hWFV* C2025 11 27.42388505 36 30.697+46 32 25.59   ~BRD5 22.27wXNEOCPF51
     P12hWFV  C2025 11 27.44614405 36 28.583+46 32 22.23   ~BRD5 22.71wXNEOCPF51
     P12hWFV  C2025 11 27.45467805 36 27.808+46 32 21.03   ~BRD5 22.43wXNEOCPF51
     P12hWFV  C2025 11 27.55369605 36 18.482+46 32 05.28   ~BRI5 22.22GVNEOCPF51
     P12hWFV 1C2025 11 28.56471805 34 46.743+46 29 14.19   ~BSLK 21.31GVNEOCPT12
     P12hWFV 1C2025 11 28.57055805 34 46.186+46 29 12.98   ~BSLK 21.62GVNEOCPT12

Station data:
(F51) Pan-STARRS 1, Haleakala  (N20.707234 W156.255910)  US/Hawaii.
   Observers J. Herman, T. Lowe, P. Minguez, A. Schultz, I. Smith. Measurers
   K. Chambers, T. de Boer, J. Fairlamb, H. Gao, M. Huber, C.-C. Lin, E.
   Magnier, Y. Ramanjooloo, R. Wainscoat, R. Weryk. 1.8-m Ritchey-Chrétien +
   CCD.
(T12) Mauna Kea-UH/Tholen NEO Follow-Up (2.24-m)  (N19.822991 W155.469434)
   US/Hawaii.  Observer R. Weryk. 2.24-m f/10.1 University of Hawaii
   reflector.

Orbital elements:  P12hWFV
   Perihelion 2026 Jun 1.773945 +/- 246 TT = 18:34:28.8 (JD 2461193.273945)
Epoch 2025 Nov 28.0 TT = JDT 2461007.5   Earth MOID: 0.3842   Ma: 0.0049
M 308.311863445 +/- 70              (J2000 ecliptic)             AutoNEOCP
n   0.278231355 +/- 0.0822          Peri.  252.857946 +/- 70
a   2.323799578 +/- 0.458           Node   290.163270 +/- 11
e   0.48601367 +/- 0.181            Incl.   22.230307 +/- 2.7
P   3.54240                H 19.37  G  0.15   U 11.1  SR
q 1.194401216 +/- 0.227    Q 3.453197941 +/- 1.59
From 6 observations 2025 Nov. 27-28 (27.5 hr); mean residual 0".26
Residuals in arcseconds: 
251127 F51  .46+  .09+    251127 F51  .20+  .01-    251128 T12  .00   .02+    
251127 F51  .00   .07-    251127 F51  .74-  .01-    251128 T12  .02+  .02-    

Ephemerides (geocentric):
Date (UTC) HH   RA             Dec           delta  r     elong  mag " sig PA
---- --------  ------------   ------------  ------ ------ -----  --- --------
2025 12 06 00  05 22 13.554   +45 53 42.26  1.1230 2.0610 155.6 21.9  357 115
2025 12 06 01  05 22 08.996   +45 53 25.65  1.1226 2.0608 155.7 21.9  361 115
2025 12 06 02  05 22 04.435   +45 53 08.99  1.1223 2.0605 155.7 21.9  365 115
2025 12 06 03  05 21 59.871   +45 52 52.28  1.1219 2.0603 155.7 21.9  368 115
2025 12 06 04  05 21 55.304   +45 52 35.51  1.1216 2.0600 155.7 21.9  372 116
2025 12 06 05  05 21 50.734   +45 52 18.68  1.1213 2.0598 155.7 21.9  376 116
2025 12 06 06  05 21 46.160   +45 52 01.80  1.1209 2.0595 155.8 21.9  381 116
2025 12 06 07  05 21 41.584   +45 51 44.86  1.1206 2.0593 155.8 21.9  385 116
2025 12 06 08  05 21 37.005   +45 51 27.87  1.1202 2.0590 155.8 21.9  389 116
2025 12 06 09  05 21 32.423   +45 51 10.82  1.1199 2.0588 155.8 21.9  393 116
2025 12 06 10  05 21 27.837   +45 50 53.72  1.1196 2.0585 155.9 21.9  397 116
2025 12 06 11  05 21 23.249   +45 50 36.56  1.1192 2.0583 155.9 21.9  401 116
2025 12 06 12  05 21 18.657   +45 50 19.34  1.1189 2.0580 155.9 21.9  405 116
2025 12 06 13  05 21 14.063   +45 50 02.07  1.1185 2.0578 155.9 21.9  409 116
2025 12 06 14  05 21 09.466   +45 49 44.75  1.1182 2.0575 155.9 21.9  414 116
2025 12 06 15  05 21 04.865   +45 49 27.36  1.1179 2.0573 156.0 21.9  418 116
2025 12 06 16  05 21 00.262   +45 49 09.93  1.1175 2.0570 156.0 21.9  422 116
2025 12 06 17  05 20 55.656   +45 48 52.43  1.1172 2.0568 156.0 21.9  426 116
2025 12 06 18  05 20 51.047   +45 48 34.88  1.1169 2.0565 156.0 21.9  431 116
2025 12 06 19  05 20 46.435   +45 48 17.28  1.1165 2.0563 156.1 21.9  435 116
2025 12 06 20  05 20 41.820   +45 47 59.62  1.1162 2.0560 156.1 21.9  439 116
2025 12 06 21  05 20 37.202   +45 47 41.90  1.1159 2.0558 156.1 21.9  444 116
2025 12 06 22  05 20 32.581   +45 47 24.13  1.1155 2.0555 156.1 21.9  448 116
2025 12 06 23  05 20 27.958   +45 47 06.30  1.1152 2.0553 156.1 21.9  453 116
2025 12 07 00  05 20 23.331   +45 46 48.41  1.1149 2.0550 156.2 21.9  457 116
2025 12 07 01  05 20 18.702   +45 46 30.47  1.1145 2.0548 156.2 21.9  462 116
2025 12 07 02  05 20 14.070   +45 46 12.47  1.1142 2.0545 156.2 21.9  466 116
2025 12 07 03  05 20 09.435   +45 45 54.42  1.1139 2.0543 156.2 21.9  471 116
2025 12 07 04  05 20 04.797   +45 45 36.31  1.1135 2.0540 156.3 21.9  475 116
2025 12 07 05  05 20 00.157   +45 45 18.14  1.1132 2.0538 156.3 21.9  480 116
2025 12 07 06  05 19 55.513   +45 44 59.92  1.1129 2.0535 156.3 21.9  484 116
2025 12 07 07  05 19 50.867   +45 44 41.64  1.1125 2.0533 156.3 21.9  489 116
2025 12 07 08  05 19 46.218   +45 44 23.30  1.1122 2.0530 156.3 21.9  493 116
2025 12 07 09  05 19 41.567   +45 44 04.91  1.1119 2.0528 156.4 21.9  498 116
2025 12 07 10  05 19 36.912   +45 43 46.46  1.1116 2.0525 156.4 21.9  503 116
2025 12 07 11  05 19 32.255   +45 43 27.96  1.1112 2.0523 156.4 21.8  508 116
2025 12 07 12  05 19 27.595   +45 43 09.40  1.1109 2.0520 156.4 21.8  512 116
2025 12 07 13  05 19 22.933   +45 42 50.78  1.1106 2.0517 156.4 21.8  517 116
2025 12 07 14  05 19 18.268   +45 42 32.10  1.1102 2.0515 156.5 21.8  522 116
2025 12 07 15  05 19 13.600   +45 42 13.37  1.1099 2.0512 156.5 21.8  527 116
2025 12 07 16  05 19 08.929   +45 41 54.58  1.1096 2.0510 156.5 21.8  531 116
2025 12 07 17  05 19 04.256   +45 41 35.74  1.1093 2.0507 156.5 21.8  536 116
2025 12 07 18  05 18 59.581   +45 41 16.83  1.1089 2.0505 156.5 21.8  541 116
2025 12 07 19  05 18 54.902   +45 40 57.87  1.1086 2.0502 156.6 21.8  546 116
2025 12 07 20  05 18 50.221   +45 40 38.86  1.1083 2.0500 156.6 21.8  551 117
2025 12 07 21  05 18 45.537   +45 40 19.78  1.1080 2.0497 156.6 21.8  556 117
2025 12 07 22  05 18 40.851   +45 40 00.65  1.1077 2.0495 156.6 21.8  561 117
2025 12 07 23  05 18 36.162   +45 39 41.47  1.1073 2.0492 156.6 21.8  566 117